TimeCEST,TemperatureF,Dew PointF,Humidity,Sea Level PressureIn,VisibilityMPH,Wind Direction,Wind SpeedMPH,Gust SpeedMPH,PrecipitationIn,Events,Conditions,WindDirDegrees,DateUTC
12:20 AM,66.2,55.4,68,29.71,6.2,NNW,3.5,-,N/A,,Scattered Clouds,330,2013-05-15 22:20:00
12:50 AM,66.2,53.6,64,29.71,6.2,Variable,2.3,-,N/A,,Scattered Clouds,0,2013-05-15 22:50:00
1:20 AM,68.0,53.6,60,29.71,6.2,North,4.6,-,N/A,,Mostly Cloudy,350,2013-05-15 23:20:00
1:50 AM,66.2,51.8,60,29.68,6.2,North,4.6,-,N/A,,Scattered Clouds,360,2013-05-15 23:50:00
2:20 AM,66.2,51.8,60,29.68,6.2,NNW,3.5,-,N/A,,Scattered Clouds,340,2013-05-16 00:20:00
2:50 AM,66.2,51.8,60,29.65,6.2,Variable,1.2,-,N/A,,Scattered Clouds,0,2013-05-16 00:50:00
3:20 AM,66.2,51.8,60,29.65,6.2,NNE,4.6,-,N/A,,Scattered Clouds,20,2013-05-16 01:20:00
3:50 AM,66.2,51.8,60,29.62,6.2,NNW,4.6,-,N/A,,Scattered Clouds,340,2013-05-16 01:50:00
4:20 AM,66.2,50.0,56,29.62,6.2,North,4.6,-,N/A,,Scattered Clouds,360,2013-05-16 02:20:00
4:50 AM,66.2,50.0,56,29.59,6.2,Variable,2.3,-,N/A,,Scattered Clouds,0,2013-05-16 02:50:00
5:50 AM,66.2,51.8,60,29.59,6.2,West,6.9,-,N/A,,Mostly Cloudy,270,2013-05-16 03:50:00
6:20 AM,68.0,53.6,60,29.62,6.2,West,6.9,-,N/A,,Mostly Cloudy,260,2013-05-16 04:20:00
6:50 AM,66.2,55.4,68,29.65,6.2,Variable,2.3,-,N/A,Rain,Light Rain,0,2013-05-16 04:50:00
7:20 AM,64.4,57.2,77,29.65,6.2,ENE,5.8,-,N/A,Rain,Light Rain,60,2013-05-16 05:20:00
7:50 AM,62.6,57.2,82,29.65,6.2,North,5.8,-,N/A,Rain,Light Rain,10,2013-05-16 05:50:00
8:50 AM,62.6,57.2,82,29.65,5.0,ENE,4.6,-,N/A,Rain,Light Rain,70,2013-05-16 06:50:00
9:20 AM,66.2,57.2,73,29.62,6.2,Variable,3.5,-,N/A,Rain,Light Rain,0,2013-05-16 07:20:00
9:50 AM,68.0,57.2,68,29.59,6.2,ENE,5.8,-,N/A,,Mostly Cloudy,70,2013-05-16 07:50:00
10:20 AM,69.8,59.0,68,29.62,6.2,SSW,5.8,-,N/A,,Mostly Cloudy,210,2013-05-16 08:20:00
10:50 AM,71.6,55.4,57,29.65,6.2,SSW,3.5,-,N/A,,Scattered Clouds,200,2013-05-16 08:50:00
11:20 AM,71.6,57.2,60,29.62,6.2,Variable,2.3,-,N/A,,Scattered Clouds,0,2013-05-16 09:20:00
11:50 AM,73.4,59.0,61,29.62,6.2,NE,5.8,-,N/A,,Scattered Clouds,50,2013-05-16 09:50:00
12:20 PM,73.4,57.2,57,29.59,6.2,North,8.1,-,N/A,,Mostly Cloudy,10,2013-05-16 10:20:00
12:50 PM,75.2,57.2,53,29.56,6.2,North,9.2,-,N/A,,Mostly Cloudy,360,2013-05-16 10:50:00
1:20 PM,77.0,59.0,54,29.56,-9999.0,North,6.9,-,N/A,,Clear,360,2013-05-16 11:20:00
1:50 PM,77.0,57.2,50,29.56,-9999.0,NNW,9.2,-,N/A,,Clear,330,2013-05-16 11:50:00
2:20 PM,78.8,59.0,51,29.53,-9999.0,NNW,8.1,-,N/A,,Clear,330,2013-05-16 12:20:00
2:50 PM,78.8,57.2,47,29.53,-9999.0,NNE,9.2,-,N/A,,Clear,20,2013-05-16 12:50:00
3:20 PM,78.8,57.2,47,29.53,-9999.0,North,6.9,-,N/A,,Clear,360,2013-05-16 13:20:00
3:50 PM,80.6,57.2,45,29.50,-9999.0,North,5.8,-,N/A,,Clear,10,2013-05-16 13:50:00
4:20 PM,80.6,57.2,45,29.50,-9999.0,NW,6.9,-,N/A,,Clear,320,2013-05-16 14:20:00
4:50 PM,80.6,59.0,48,29.50,6.2,SSW,3.5,-,N/A,,Scattered Clouds,210,2013-05-16 14:50:00
5:20 PM,75.2,55.4,50,29.50,6.2,SSW,9.2,-,N/A,,Scattered Clouds,210,2013-05-16 15:20:00
5:50 PM,75.2,53.6,47,29.50,6.2,SSW,10.4,-,N/A,,Scattered Clouds,210,2013-05-16 15:50:00
6:20 PM,75.2,55.4,50,29.53,6.2,South,9.2,-,N/A,,Mostly Cloudy,190,2013-05-16 16:20:00
6:50 PM,75.2,55.4,50,29.50,6.2,Variable,8.1,-,N/A,,Mostly Cloudy,0,2013-05-16 16:50:00
7:20 PM,73.4,55.4,53,29.53,6.2,SSW,10.4,-,N/A,,Mostly Cloudy,210,2013-05-16 17:20:00
8:20 PM,71.6,59.0,64,29.53,6.2,SSW,9.2,-,N/A,,Mostly Cloudy,200,2013-05-16 18:20:00
8:50 PM,69.8,59.0,68,29.53,6.2,SSW,9.2,-,N/A,,Mostly Cloudy,210,2013-05-16 18:50:00
9:20 PM,69.8,59.0,68,29.56,5.0,SW,6.9,-,N/A,,Mostly Cloudy,220,2013-05-16 19:20:00
9:50 PM,68.0,60.8,78,29.56,5.0,SSW,8.1,-,N/A,,Mostly Cloudy,210,2013-05-16 19:50:00
10:20 PM,68.0,60.8,78,29.56,6.2,SSW,5.8,-,N/A,,Scattered Clouds,210,2013-05-16 20:20:00
10:50 PM,66.2,60.8,83,29.56,6.2,South,6.9,-,N/A,,Scattered Clouds,190,2013-05-16 20:50:00
11:20 PM,68.0,60.8,78,29.56,6.2,South,5.8,-,N/A,,Scattered Clouds,190,2013-05-16 21:20:00
11:50 PM,66.2,60.8,83,29.56,-9999.0,South,4.6,-,N/A,,Clear,170,2013-05-16 21:50:00